Date String (YYYY-MM-DD hh:mm:ss) UTC,Instrument flags,Ambient pressure (hPa),Sample flow (lpm),Bypass flow (lpm),Sample temperature (°C),Ambient temperature (°C),ASC tube jacket temperature (°C),LED temperature (°C),Box temperature (°C),Sample RH (%),Span deviation,Mass concentration (μg/m³),Mass concentration (μg/m³),Mass concentration (μg/m³)
DateTimeUTC,F1_M11,P_M11,Q1_M11,Q2_M11,T1_M11,T2_M11,T3_M11,T4_M11,T5_M11,U1_M11,ZSPAN_M11,X0_M11,X2_M11,X1_M11
2022-06-14 09:00:00,,0818.4,5.00,0.00,29.2,28.3,00.0,38.0,31.1,16.4,0009.4,0041.99,0012.22,0004.21
2022-06-14 09:01:00,,0818.4,5.00,0.00,29.2,28.4,00.0,38.0,31.1,16.4,0010.0,0042.50,0012.24,0004.22
2022-06-14 09:02:00,,0818.4,5.01,0.00,29.2,28.4,00.0,38.1,31.1,16.4,0008.7,0042.46,0012.27,0004.23
2022-06-14 09:03:00,,0818.5,5.00,0.00,29.2,28.4,00.0,38.1,31.1,16.3,0008.3,0041.90,0012.24,0004.22
2022-06-14 09:04:00,,0818.5,5.00,0.00,29.2,28.5,00.0,38.1,31.2,16.3,0008.4,0042.75,0012.32,0004.24
2022-06-14 09:05:00,,0818.5,4.99,0.00,29.3,28.5,00.0,38.1,31.2,16.2,0007.8,0042.65,0012.36,0004.25
2022-06-14 09:06:00,,0818.4,5.00,0.00,29.3,28.5,00.0,38.1,31.2,16.2,0008.6,0042.22,0012.25,0004.24
2022-06-14 09:07:00,,0818.4,5.00,0.00,29.3,28.5,00.0,38.1,31.2,16.1,0006.4,0042.11,0012.22,0004.25
2022-06-14 09:08:00,,0818.4,5.01,0.00,29.3,28.6,00.0,38.1,31.2,16.1,0006.2,0041.02,0012.23,0004.25
2022-06-14 09:09:00,,0818.4,5.00,0.00,29.4,28.6,00.0,38.2,31.3,16.0,0004.7,0040.45,0012.23,0004.26
2022-06-14 09:10:00,,0818.4,4.99,0.00,29.4,28.6,00.0,38.2,31.3,16.0,0002.7,0039.65,0012.17,0004.28
2022-06-14 09:11:00,,0818.4,5.00,0.00,29.4,28.6,00.0,38.2,31.3,16.0,0006.1,0037.38,0012.12,0004.32
2022-06-14 09:12:00,,0818.5,5.01,0.00,29.4,28.6,00.0,38.2,31.3,15.9,0005.8,0035.92,0011.92,0004.32
2022-06-14 09:13:00,,0818.5,5.00,0.00,29.4,28.6,00.0,38.2,31.3,15.9,0005.8,0035.49,0011.82,0004.30
2022-06-14 09:14:00,,0818.4,5.00,0.00,29.4,28.6,00.0,38.2,31.3,15.9,0005.8,0036.94,0011.78,0004.31
2022-06-14 09:15:00,,0818.4,5.00,0.00,29.4,28.6,00.0,38.3,31.3,15.9,0006.0,0036.23,0011.70,0004.30
2022-06-14 09:16:00,,0818.4,5.00,0.00,29.4,28.6,00.0,38.3,31.2,16.0,0005.6,0036.07,0011.67,0004.29
2022-06-14 09:17:00,,0818.4,5.00,0.00,29.4,28.5,00.0,38.3,31.2,16.0,0003.8,0035.87,0011.74,0004.29
2022-06-14 09:18:00,,0818.5,5.00,0.00,29.4,28.5,00.0,38.3,31.2,16.1,0003.8,0035.78,0011.82,0004.31
2022-06-14 09:19:00,,0818.6,5.00,0.00,29.4,28.5,00.0,38.3,31.2,16.1,0003.9,0035.73,0011.78,0004.31
2022-06-14 09:20:00,,0818.7,5.00,0.00,29.4,28.5,00.0,38.3,31.2,16.2,0004.4,0035.71,0011.84,0004.31
2022-06-14 09:21:00,,0818.7,5.00,0.00,29.3,28.4,00.0,38.3,31.2,16.2,0003.7,0036.03,0012.03,0004.34
2022-06-14 09:22:00,,0818.5,5.01,0.00,29.3,28.4,00.0,38.3,31.2,16.3,0003.3,0036.20,0012.12,0004.34
2022-06-14 09:23:00,,0818.5,4.99,0.00,29.3,28.4,00.0,38.3,31.1,16.4,0003.4,0036.07,0012.24,0004.36
2022-06-14 09:24:00,,0818.4,4.99,0.00,29.3,28.4,00.0,38.3,31.1,16.4,0003.7,0036.09,0012.28,0004.41
2022-06-14 09:25:00,,0818.4,4.99,0.00,29.3,28.4,00.0,38.3,31.1,16.4,0004.1,0034.48,0012.28,0004.43
2022-06-14 09:26:00,,0818.4,5.00,0.00,29.3,28.4,00.0,38.3,31.1,16.4,0003.7,0035.76,0012.51,0004.46
2022-06-14 09:27:00,,0818.4,5.01,0.00,29.3,28.4,00.0,38.3,31.1,16.5,0003.7,0036.52,0012.62,0004.51
2022-06-14 09:28:00,,0818.4,5.00,0.00,29.3,28.4,00.0,38.3,31.1,16.5,0005.0,0037.77,0012.77,0004.55
2022-06-14 09:29:00,,0818.4,5.01,0.00,29.3,28.4,00.0,38.3,31.1,16.5,0005.5,0037.97,0012.74,0004.56
2022-06-14 09:30:00,,0818.4,5.01,0.00,29.3,28.4,00.0,38.3,31.1,16.5,0006.0,0038.44,0012.82,0004.60
2022-06-14 09:31:00,,0818.4,5.01,0.00,29.3,28.4,00.0,38.3,31.2,16.5,0005.8,0039.10,0012.79,0004.62
2022-06-14 09:32:00,,0818.4,4.99,0.00,29.3,28.4,00.0,38.3,31.2,16.5,0005.6,0039.54,0012.74,0004.61
2022-06-14 09:33:00,,0818.4,5.01,0.00,29.3,28.4,00.0,38.3,31.2,16.5,0005.7,0039.52,0012.65,0004.62
2022-06-14 09:34:00,,0818.4,5.00,0.00,29.3,28.4,00.0,38.3,31.2,16.5,0006.0,0039.85,0012.65,0004.63
2022-06-14 09:35:00,,0818.4,4.99,0.00,29.3,28.5,00.0,38.3,31.2,16.5,0005.4,0040.25,0012.59,0004.62
2022-06-14 09:36:00,,0818.4,5.00,0.00,29.3,28.5,00.0,38.3,31.2,16.5,0005.5,0042.25,0012.67,0004.62
2022-06-14 09:37:00,,0818.4,5.00,0.00,29.3,28.5,00.0,38.3,31.2,16.4,0005.6,0041.92,0012.58,0004.61
2022-06-14 09:38:00,,0818.4,5.00,0.00,29.4,28.5,00.0,38.3,31.2,16.4,0004.8,0042.00,0012.54,0004.60
2022-06-14 09:39:00,,0818.4,5.01,0.00,29.4,28.5,00.0,38.3,31.2,16.4,0003.3,0042.09,0012.45,0004.61
2022-06-14 09:40:00,,0818.4,5.01,0.00,29.4,28.5,00.0,38.3,31.2,16.4,0003.7,0041.69,0012.33,0004.61
2022-06-14 09:41:00,,0818.4,5.01,0.00,29.4,28.5,00.0,38.3,31.3,16.4,0002.3,0041.35,0012.08,0004.62
2022-06-14 09:42:00,,0818.4,5.00,0.00,29.4,28.5,00.0,38.3,31.3,16.5,0002.6,0041.28,0012.15,0004.62
2022-06-14 09:43:00,,0818.4,5.00,0.00,29.4,28.5,00.0,38.3,31.3,16.4,0003.1,0040.81,0012.13,0004.63
2022-06-14 09:44:00,,0818.4,4.99,0.00,29.4,28.6,00.0,38.3,31.3,16.4,0004.7,0040.61,0012.17,0004.64
2022-06-14 09:45:00,,0818.4,5.00,0.00,29.4,28.6,00.0,38.3,31.3,16.4,0003.7,0041.09,0012.25,0004.63
2022-06-14 09:46:00,,0818.3,5.00,0.00,29.4,28.6,00.0,38.3,31.3,16.4,0003.4,0041.69,0012.37,0004.63
2022-06-14 09:47:00,,0818.3,5.01,0.00,29.4,28.6,00.0,38.3,31.3,16.4,0002.8,0040.75,0012.46,0004.66
2022-06-14 09:48:00,,0818.4,5.01,0.00,29.4,28.6,00.0,38.3,31.3,16.4,0002.9,0040.72,0012.54,0004.68
2022-06-14 09:49:00,,0818.4,5.00,0.00,29.5,28.6,00.0,38.3,31.3,16.4,0003.6,0041.51,0012.55,0004.67
2022-06-14 09:50:00,,0818.4,4.99,0.00,29.5,28.6,00.0,38.3,31.3,16.4,0004.8,0041.43,0012.67,0004.69
2022-06-14 09:51:00,,0818.4,5.00,0.00,29.5,28.6,00.0,38.3,31.3,16.4,0004.9,0041.57,0012.93,0004.70
2022-06-14 09:52:00,,0818.4,5.00,0.00,29.5,28.7,00.0,38.3,31.3,16.4,0007.3,0041.75,0013.30,0004.70
2022-06-14 09:53:00,,0818.5,5.00,0.00,29.5,28.7,00.0,38.4,31.3,16.4,0007.1,0041.90,0013.33,0004.70
2022-06-14 09:54:00,,0818.4,4.99,0.00,29.5,28.7,00.0,38.4,31.3,16.4,0006.8,0041.76,0013.37,0004.71
2022-06-14 09:55:00,,0818.4,5.01,0.00,29.5,28.7,00.0,38.4,31.3,16.4,0005.7,0042.55,0013.39,0004.73
2022-06-14 09:56:00,,0818.4,4.99,0.00,29.5,28.7,00.0,38.4,31.3,16.4,0006.3,0042.19,0013.19,0004.73
2022-06-14 09:57:00,,0818.4,4.99,0.00,29.5,28.6,00.0,38.4,31.3,16.4,0007.6,0042.25,0013.21,0004.76
2022-06-14 09:58:00,,0818.4,5.00,0.00,29.5,28.6,00.0,38.4,31.3,16.4,0009.1,0042.95,0013.18,0004.76
2022-06-14 09:59:00,,0818.4,5.01,0.00,29.5,28.6,00.0,38.4,31.3,16.4,0008.6,0043.83,0012.99,0004.74
